カタログに戻る

STARLINK-35749

運用中通信VLEO
NORAD 66879·PAYLOAD·🇺🇸 United States

打ち上げ Dec 4, 2025 から Vandenberg Space Force Base

Loading…

次のパス (今後24時間)

TLE

最新Source: CelesTrak SupGP

元期: Sep 15, 2026, 03:51 UTC

1 66879C 25283B   26258.16090278 -.00058306  00000+0 -17229-2 0  2586
2 66879  53.1577 222.9112 0001453  93.3277 125.6309 15.34414655    14

AllMySatでSTARLINK-35749をリアルタイム追跡

Download on the App Store